Location: Newark
(45.2500°N, 7.5833°E)
Time: 20:28:12
(UTC+00:00)

A-11 Canister half - Pass Details

Date: 28 January 2020
Orbit: 1524 x 1684 km, 47.3° (Epoch: 26 February)

Event Time Altitude Azimuth Distance (km) Brightness Sun altitude
Rises 15:08:34 0° 210° (SSW) 4,661 13.0 11.2°
Reaches altitude 10° 15:11:49 10° 203° (SSW) 3,680 12.3 10.8°
Maximum altitude 15:20:10 40° 138° (SE) 2,137 9.9 9.6°
Drops below altitude 10° 15:28:39 10° 73° (ENE) 3,747 10.5 8.4°
Sets 15:31:59 0° 67° (ENE) 4,753 10.9 8.0°
